Weather in Arkhangelskoye

Russia / Udmurt Republic     57°47′22″N   52°40′52″E
temp.,
°C
wind,
m/s
gust,
m/s
humid.,
%
clouds,
%
prec.,
mm/h
press.,
hPa
HPBL,
m
27 october, wed
wed2701:000sw51098100 0.4 1016466
04:000sw51093100 0.6 1016434
07:00−1sw41095100 0.0 1015377
10:000sw51092100 0.0 1014432
13:00+2sw51087100 0.0 1013581
16:00+2sw51087100 0.0 1012623
19:00+1sw51289100 0.0 1010547
22:000sw61498100 0.7 1008633
28 october, thu
thu2801:00+1sw61484100 0.3 1006613
04:00+1sw61497100 0.7 1004777
07:00+1wsw61298100 0.6 1003831
10:00+2wsw61398100 1.4 10041012
13:00+4w71289100 0.4 1006920
16:00+3wsw61393100 0.5 1007832
19:00+1nw4898100 1.3 1009635
22:00−1nnw5987100 2.8 1011746
29 october, fri
fri2901:00−5nnw5118664 0.0 1016613
04:00−5nnw5118348 0.0 1019702
07:00−6nnw5118511 0.0 1022635
10:00−4nnw587711 0.0 1025564
13:00−2nnw45645 0.0 1027769
16:00−3wnw367032 0.0 1029442
19:00−4wsw2679100 0.0 1029206
22:00−3sw4875100 0.0 1029444
30 october, sat
sat3001:00−3sw61382100 0.1 1027534
04:00−3sw71570100 0.1 1024865
07:00−3sw71589100 0.3 1022719
10:00−1sw71574100 1.1 1020624
13:00+1wsw61590100 0.3 1020611
16:00+2w61497100 0.3 1020544
19:00+3w61398100 0.0 1021476
22:00+3w51198100 0.0 1023373
31 october, sun
sun3101:00+3w41098100 0.0 1023307
04:00+3wsw41098100 0.0 1024262
07:00+2wsw4899100 0.0 1024228
10:00+3sw4109898 0.0 1024304
13:00+4sw5119199 0.0 1023395
16:00+4sw5138899 0.0 1022375
19:00+3wsw6148995 0.0 1021409
22:00+2wsw6159177 0.0 1022415